When you browse on this site, cookies collect data to enhance your experience and personalize the content and advertising you see.
Visit our Privacy Policy to learn more. By continuing to use the site, you agree to this use of cookies and data.
  • In Switzerland
  • List of Countries
  • For 7 days
  • Water Temperature
  • Weather Map
  • Weather Widgets
  • user-avatar
    Login

    Hourly Weather Yancheng

    Today, 25 May, Monday

    Time Temperature Precipitation Wind Pressure Humidity
    00:00 +19°C° 0 mm 2 mps 759 mmHg 70%
    01:00 +20°C° 0 mm 1 mps 759 mmHg 70%
    02:00 +20°C° 0 mm 1 mps 758 mmHg 69%
    03:00 +20°C° 0 mm 1 mps 759 mmHg 67%
    04:00 +20°C° 0 mm 1 mps 759 mmHg 66%
    05:00 +20°C° 0 mm 1 mps 759 mmHg 65%
    06:00 +21°C° 0 mm 1 mps 759 mmHg 62%
    07:00 +21°C° 0 mm 2 mps 759 mmHg 58%
    08:00 +23°C° 0 mm 2 mps 759 mmHg 54%
    09:00 +25°C° 0 mm 2 mps 759 mmHg 49%
    10:00 +26°C° 0 mm 1 mps 759 mmHg 44%
    11:00 +25°C° 0 mm 0 mps 759 mmHg 40%
    12:00 +27°C° 0 mm 1 mps 758 mmHg 41%
    13:00 +27°C° 0 mm 1 mps 758 mmHg 42%
    14:00 +27°C° 0 mm 1 mps 757 mmHg 44%
    15:00 +25°C° 0 mm 2 mps 757 mmHg 48%
    16:00 +24°C° 0 mm 2 mps 757 mmHg 53%
    17:00 +23°C° 0 mm 2 mps 757 mmHg 58%
    18:00 +23°C° 0 mm 2 mps 757 mmHg 59%
    19:00 +21°C° 0 mm 2 mps 757 mmHg 61%
    20:00 +21°C° 0 mm 2 mps 757 mmHg 62%
    21:00 +21°C° 0 mm 3 mps 757 mmHg 60%
    22:00 +21°C° 0 mm 3 mps 758 mmHg 58%
    23:00 +21°C° 0 mm 3 mps 758 mmHg 56%

    Tomorrow, 26 May, Tuesday

    Time Temperature Precipitation Wind Pressure Humidity
    00:00 +20°C° 0 mm 3 mps 758 mmHg 61%
    01:00 +20°C° 0 mm 3 mps 757 mmHg 65%
    02:00 +20°C° 0 mm 3 mps 757 mmHg 70%
    03:00 +19°C° 0 mm 3 mps 757 mmHg 75%
    04:00 +18°C° 0 mm 2 mps 757 mmHg 79%
    05:00 +18°C° 0 mm 2 mps 757 mmHg 84%
    06:00 +19°C° 0 mm 2 mps 757 mmHg 78%
    07:00 +21°C° 0 mm 2 mps 757 mmHg 71%
    08:00 +24°C° 0 mm 2 mps 757 mmHg 65%
    09:00 +25°C° 0 mm 2 mps 757 mmHg 57%
    10:00 +27°C° 0 mm 2 mps 757 mmHg 50%
    11:00 +28°C° 0 mm 3 mps 757 mmHg 43%
    12:00 +29°C° 0 mm 3 mps 756 mmHg 41%
    13:00 +30°C° 0 mm 3 mps 756 mmHg 38%
    14:00 +31°C° 0 mm 3 mps 755 mmHg 36%
    15:00 +30°C° 0 mm 3 mps 755 mmHg 41%
    16:00 +29°C° 0 mm 3 mps 755 mmHg 46%
    17:00 +28°C° 0 mm 3 mps 755 mmHg 51%
    18:00 +26°C° 0 mm 4 mps 755 mmHg 59%
    19:00 +25°C° 0 mm 4 mps 755 mmHg 68%
    20:00 +22°C° 0 mm 5 mps 756 mmHg 76%
    21:00 +22°C° 0 mm 4 mps 756 mmHg 78%
    22:00 +22°C° 0 mm 4 mps 756 mmHg 79%
    23:00 +22°C° 0 mm 3 mps 757 mmHg 80%

    Day after tomorrow, 27 May, Wednesday

    Time Temperature Precipitation Wind Pressure Humidity
    00:00 +21°C° 0 mm 3 mps 756 mmHg 81%
    01:00 +21°C° 0 mm 2 mps 756 mmHg 83%
    02:00 +20°C° 0 mm 2 mps 756 mmHg 85%
    03:00 +19°C° 0 mm 2 mps 756 mmHg 86%
    04:00 +19°C° 0 mm 2 mps 756 mmHg 87%
    05:00 +18°C° 0 mm 2 mps 756 mmHg 88%
    06:00 +20°C° 0 mm 2 mps 756 mmHg 79%
    07:00 +23°C° 0 mm 2 mps 756 mmHg 71%
    08:00 +25°C° 0 mm 2 mps 757 mmHg 63%
    09:00 +26°C° 0 mm 2 mps 757 mmHg 52%
    10:00 +28°C° 0 mm 2 mps 757 mmHg 40%
    11:00 +30°C° 0 mm 2 mps 756 mmHg 29%
    12:00 +31°C° 0 mm 2 mps 756 mmHg 27%
    13:00 +32°C° 0 mm 2 mps 756 mmHg 25%
    14:00 +32°C° 0 mm 2 mps 755 mmHg 24%
    15:00 +32°C° 0 mm 2 mps 755 mmHg 27%
    16:00 +31°C° 0 mm 3 mps 754 mmHg 30%
    17:00 +31°C° 0 mm 3 mps 754 mmHg 34%
    18:00 +28°C° 0 mm 4 mps 754 mmHg 42%
    19:00 +26°C° 0 mm 4 mps 755 mmHg 51%
    20:00 +22°C° 0 mm 4 mps 755 mmHg 59%
    21:00 +22°C° 0 mm 4 mps 755 mmHg 63%
    22:00 +22°C° 0 mm 4 mps 755 mmHg 66%
    23:00 +21°C° 0 mm 4 mps 755 mmHg 70%

    28 May, Thursday

    Time Temperature Precipitation Wind Pressure Humidity
    00:00 +21°C° 0 mm 4 mps 755 mmHg 70%
    01:00 +22°C° 0 mm 3 mps 755 mmHg 69%
    02:00 +22°C° 0 mm 3 mps 755 mmHg 68%
    03:00 +21°C° 0 mm 3 mps 755 mmHg 69%
    04:00 +21°C° 0 mm 2 mps 755 mmHg 70%
    05:00 +21°C° 0 mm 1 mps 755 mmHg 71%
    06:00 +23°C° 0 mm 2 mps 755 mmHg 64%
    07:00 +25°C° 0 mm 2 mps 755 mmHg 56%
    08:00 +27°C° 0 mm 3 mps 756 mmHg 48%
    09:00 +29°C° 0 mm 3 mps 756 mmHg 39%
    10:00 +31°C° 0 mm 3 mps 756 mmHg 29%
    11:00 +34°C° 0 mm 4 mps 757 mmHg 20%
    12:00 +34°C° 0 mm 4 mps 756 mmHg 20%
    13:00 +35°C° 0 mm 4 mps 756 mmHg 21%
    14:00 +35°C° 0 mm 5 mps 756 mmHg 21%
    15:00 +33°C° 0 mm 5 mps 756 mmHg 24%
    16:00 +32°C° 0 mm 5 mps 756 mmHg 27%
    17:00 +29°C° 0 mm 5 mps 756 mmHg 31%
    18:00 +27°C° 0 mm 5 mps 757 mmHg 36%
    19:00 +25°C° 0 mm 4 mps 757 mmHg 41%
    20:00 +22°C° 0 mm 4 mps 757 mmHg 47%
    21:00 +22°C° 0 mm 4 mps 757 mmHg 46%
    22:00 +22°C° 0 mm 4 mps 758 mmHg 46%
    23:00 +22°C° 0 mm 4 mps 758 mmHg 45%

    29 May, Friday

    Time Temperature Precipitation Wind Pressure Humidity
    00:00 +22°C° 0 mm 4 mps 757 mmHg 46%
    01:00 +21°C° 0 mm 4 mps 757 mmHg 46%
    02:00 +21°C° 0 mm 4 mps 757 mmHg 47%
    03:00 +21°C° 0 mm 4 mps 757 mmHg 46%
    04:00 +21°C° 0 mm 3 mps 757 mmHg 45%
    05:00 +21°C° 0 mm 3 mps 757 mmHg 45%
    06:00 +22°C° 0 mm 3 mps 757 mmHg 43%
    07:00 +25°C° 0 mm 3 mps 757 mmHg 41%
    08:00 +26°C° 0 mm 4 mps 757 mmHg 39%
    09:00 +28°C° 0 mm 4 mps 757 mmHg 35%
    10:00 +32°C° 0 mm 4 mps 757 mmHg 30%
    11:00 +34°C° 0 mm 4 mps 757 mmHg 26%
    12:00 +34°C° 0 mm 5 mps 757 mmHg 25%
    13:00 +34°C° 0 mm 6 mps 757 mmHg 24%
    14:00 +34°C° 0 mm 7 mps 757 mmHg 24%
    15:00 +32°C° 0 mm 8 mps 757 mmHg 27%
    16:00 +29°C° 0 mm 9 mps 757 mmHg 30%
    17:00 +28°C° 0 mm 10 mps 757 mmHg 33%
    18:00 +28°C° 0 mm 8 mps 757 mmHg 33%
    19:00 +27°C° 0 mm 7 mps 757 mmHg 32%
    20:00 +27°C° 0 mm 5 mps 758 mmHg 32%
    21:00 +26°C° 0 mm 6 mps 757 mmHg 39%
    22:00 +24°C° 0 mm 7 mps 757 mmHg 45%
    23:00 +22°C° 0 mm 8 mps 757 mmHg 52%

    30 May, Saturday

    Time Temperature Precipitation Wind Pressure Humidity
    00:00 +22°C° 0.1 mm 7 mps 757 mmHg 57%
    01:00 +21°C° 0.1 mm 6 mps 757 mmHg 62%
    02:00 +21°C° 0.1 mm 5 mps 757 mmHg 67%
    03:00 +21°C° 0.1 mm 6 mps 757 mmHg 65%
    04:00 +21°C° 0.1 mm 6 mps 757 mmHg 62%
    05:00 +21°C° 0.1 mm 7 mps 757 mmHg 60%
    06:00 +20°C° 0 mm 7 mps 757 mmHg 66%
    07:00 +20°C° 0 mm 7 mps 757 mmHg 72%
    08:00 +18°C° 0 mm 7 mps 757 mmHg 78%
    09:00 +20°C° 0 mm 7 mps 757 mmHg 77%
    10:00 +20°C° 0 mm 7 mps 757 mmHg 77%
    11:00 +20°C° 0 mm 7 mps 757 mmHg 77%
    12:00 +20°C° 0.1 mm 6 mps 757 mmHg 77%
    13:00 +20°C° 0.1 mm 6 mps 756 mmHg 78%
    14:00 +20°C° 0.1 mm 6 mps 756 mmHg 78%
    15:00 +20°C° 0.1 mm 5 mps 756 mmHg 79%
    16:00 +20°C° 0.1 mm 5 mps 756 mmHg 80%
    17:00 +20°C° 0.1 mm 5 mps 756 mmHg 81%
    18:00 +20°C° 0 mm 5 mps 756 mmHg 83%
    19:00 +20°C° 0 mm 4 mps 756 mmHg 84%
    20:00 +19°C° 0 mm 4 mps 756 mmHg 86%
    21:00 +19°C° 0 mm 3 mps 757 mmHg 89%
    22:00 +18°C° 0 mm 3 mps 757 mmHg 92%
    23:00 +18°C° 0 mm 2 mps 757 mmHg 95%
    Show more